Find Starlink 11072

NORAD ID: 58705 Int'l Des: 2024-002 Owner: SPXS Country: US Constellation: starlink operational
別名: STARLINK-11072 [DTC] celestrak
LEOCIRCULAR

現在のビュー

3D地球を読み込み中...

About Starlink 11072

Starlink 11072 (NORAD 58705) is a starlink constellation satellite (v2 mini d2c) launched Jan 3, 2024 by SPXS of US. It operates in LEO, CIRCULAR orbit with a mass of 960.00 kg.

次回通過

Passes for default location (London). Set your location on the main map for personalized predictions.

高度履歴

Loading altitude history...

軌道要素

1 58705U 24002A 26262.72993819 -.00004270 00000-0 -30427-4 0 9994
2 58705 53.1595 37.4663 0001210 72.1057 288.0092 15.69690382156910
Epoch: Sep 19, 2026 • Age: 32 hours

現在のステータス

高度 371.0 km
遠地点 / 近地点 N/A
速度 7.69 km/s
衛星直下点 -33.44°S, 134.88°W
打ち上げ日 Jan 3, 2024
運用期間 2.7 years
タイプ internet

技術仕様

分類 Payload
質量 960.00 kg
乾燥質量 910.00 kg
長さ 0.30 m
スパン 29.00 m
形状 ? Box + pan
製造者 SPXS
バスタイプ Starlink V2MD
フェーズステータス In Orbit
所有者/国 SPXS/US

Most Searched